Tracking 19146 objects as of 23-Apr-2018
HD Live streaming from Space Station
objects crossing your sky now

FENGYUN 1C DEB

Track FENGYUN 1C DEB now!
10-day predictions


NORAD ID: 33731
Int'l Code: 1999-025DHU
Perigee: 843.1 km
Apogee: 1,052.9 km
Inclination: 99.3 °
Period: 103.9 minutes
Semi major axis: 7318 km
RCS: 0.0076 m2 (small)
Launch date: May 10, 1999
Source: People's Republic of China (PRC)
Launch site: Taiyaun Space Center, China (TSC)

Note: This is SATELLITE DEBRIS
aabbcc
Your satellite tracking list
Your tracking list is empty




NASA's NSSDC Master Catalog

Two Line Element Set (TLE):
1 33731U 99025DHU 18112.85344515 -.00000227 +00000-0 -14383-3 0  9995
2 33731 099.3298 070.1481 0143321 334.9555 051.1087 13.86520400517013
Source of the keplerian elements: AFSPC